Tracking 32941 objects as of 15-Jan-2026
HD Live streaming from Space Station
objects crossing your sky now

DMSP 5D-2 F13 DEB

Track DMSP 5D-2 F13 DEB now!
10-day predictions


NORAD ID: 42265
Int'l Code: 1995-015GF
Perigee: 770.1 km
Apogee: 777.7 km
Inclination: 98.7 °
Period: 100.2 minutes
Semi major axis: 7144 km
RCS: Unknown
Launch date: March 24, 1995
Source: United States (US)
Launch site: AIR FORCE WESTERN TEST RANGE (AFWTR)

Note: This is SATELLITE DEBRIS
Your satellite tracking list
Your tracking list is empty




NASA's NSSDC Master Catalog

Two Line Element Set (TLE):
1 42265U 95015GF  26014.55177660  .00002586  00000-0  87847-3 0  9997
2 42265  98.6904  51.9023 0005356 123.0487 237.1215 14.37497954526525
Source of the keplerian elements: AFSPC